• In Latvia
  • List of Countries
  • For 7 days
  • Water Temperature
  • Satellite Maps
  • Weather Map
  • Weather Widgets
  • user-avatar
    Login

    Hourly Weather Kostindor

    Today, 21 September, Friday

    Time Temperature Precipitation Wind Pressure Humidity
    00:00 +13°C° 0 mm 3 mps 747 mmHg 93%
    01:00 +13°C° 0 mm 3 mps 748 mmHg 93%
    02:00 +13°C° 0 mm 3 mps 748 mmHg 94%
    03:00 +13°C° 0 mm 3 mps 748 mmHg 94%
    04:00 +13°C° 0 mm 3 mps 748 mmHg 94%
    05:00 +12°C° 0 mm 3 mps 748 mmHg 95%
    06:00 +14°C° 0 mm 3 mps 748 mmHg 90%
    07:00 +16°C° 0 mm 3 mps 748 mmHg 85%
    08:00 +17°C° 0 mm 3 mps 749 mmHg 80%
    09:00 +19°C° 0 mm 3 mps 749 mmHg 74%
    10:00 +20°C° 0 mm 4 mps 749 mmHg 68%
    11:00 +22°C° 0 mm 4 mps 749 mmHg 63%
    12:00 +22°C° 0 mm 4 mps 749 mmHg 61%
    13:00 +23°C° 0 mm 4 mps 749 mmHg 59%
    14:00 +23°C° 0 mm 4 mps 749 mmHg 57%
    15:00 +22°C° 0.3 mm 3 mps 749 mmHg 66%
    16:00 +21°C° 0.3 mm 3 mps 749 mmHg 74%
    17:00 +20°C° 0.3 mm 2 mps 749 mmHg 82%
    18:00 +19°C° 0.2 mm 2 mps 749 mmHg 85%
    19:00 +18°C° 0.2 mm 3 mps 749 mmHg 89%
    20:00 +17°C° 0.2 mm 3 mps 749 mmHg 93%
    21:00 +17°C° 0 mm 3 mps 749 mmHg 93%
    22:00 +17°C° 0 mm 3 mps 749 mmHg 93%
    23:00 +17°C° 0 mm 3 mps 749 mmHg 94%

    Tomorrow, 22 September, Saturday

    Time Temperature Precipitation Wind Pressure Humidity
    00:00 +16°C° 0 mm 3 mps 748 mmHg 94%
    01:00 +16°C° 0 mm 3 mps 748 mmHg 93%
    02:00 +16°C° 0 mm 3 mps 748 mmHg 93%
    03:00 +16°C° 0 mm 3 mps 748 mmHg 93%
    04:00 +15°C° 0 mm 4 mps 747 mmHg 94%
    05:00 +14°C° 0 mm 4 mps 747 mmHg 94%
    06:00 +15°C° 0 mm 4 mps 747 mmHg 91%
    07:00 +17°C° 0 mm 4 mps 747 mmHg 87%
    08:00 +19°C° 0 mm 5 mps 746 mmHg 84%
    09:00 +20°C° 0 mm 5 mps 746 mmHg 76%
    10:00 +22°C° 0 mm 6 mps 746 mmHg 68%
    11:00 +23°C° 0 mm 6 mps 745 mmHg 60%
    12:00 +23°C° 0 mm 6 mps 745 mmHg 57%
    13:00 +24°C° 0 mm 6 mps 744 mmHg 55%
    14:00 +24°C° 0 mm 6 mps 744 mmHg 52%
    15:00 +23°C° 0 mm 6 mps 743 mmHg 56%
    16:00 +22°C° 0 mm 5 mps 743 mmHg 60%
    17:00 +21°C° 0 mm 4 mps 743 mmHg 64%
    18:00 +20°C° 0.1 mm 4 mps 743 mmHg 69%
    19:00 +19°C° 0.1 mm 4 mps 743 mmHg 74%
    20:00 +18°C° 0.1 mm 4 mps 743 mmHg 79%
    21:00 +17°C° 0.2 mm 4 mps 743 mmHg 83%
    22:00 +14°C° 0.2 mm 3 mps 743 mmHg 86%
    23:00 +14°C° 0.2 mm 2 mps 743 mmHg 90%

    Day after tomorrow, 23 September, Sunday

    Time Temperature Precipitation Wind Pressure Humidity
    00:00 +12°C° 0.5 mm 3 mps 742 mmHg 89%
    01:00 +12°C° 0.5 mm 3 mps 742 mmHg 89%
    02:00 +11°C° 0.5 mm 3 mps 742 mmHg 88%
    03:00 +11°C° 0.2 mm 3 mps 742 mmHg 88%
    04:00 +12°C° 0.2 mm 2 mps 742 mmHg 89%
    05:00 +10°C° 0.2 mm 2 mps 742 mmHg 90%
    06:00 +10°C° 0.4 mm 2 mps 742 mmHg 90%
    07:00 +10°C° 0.4 mm 2 mps 742 mmHg 91%
    08:00 +10°C° 0.4 mm 2 mps 742 mmHg 92%
    09:00 +10°C° 0.9 mm 2 mps 742 mmHg 92%
    10:00 +10°C° 0.9 mm 2 mps 741 mmHg 92%
    11:00 +10°C° 0.9 mm 2 mps 741 mmHg 93%
    12:00 +10°C° 1.2 mm 2 mps 741 mmHg 93%
    13:00 +9°C° 1.2 mm 3 mps 741 mmHg 93%
    14:00 +9°C° 1.2 mm 3 mps 741 mmHg 93%
    15:00 +9°C° 1.3 mm 3 mps 741 mmHg 94%
    16:00 +9°C° 1.3 mm 2 mps 741 mmHg 94%
    17:00 +9°C° 1.3 mm 2 mps 740 mmHg 95%
    18:00 +9°C° 0.2 mm 2 mps 740 mmHg 96%
    19:00 +9°C° 0.2 mm 2 mps 741 mmHg 96%
    20:00 +9°C° 0.2 mm 2 mps 741 mmHg 96%
    21:00 +9°C° 0 mm 2 mps 741 mmHg 96%
    22:00 +8°C° 0 mm 2 mps 741 mmHg 96%
    23:00 +8°C° 0 mm 3 mps 741 mmHg 96%

    24 September, Monday

    Time Temperature Precipitation Wind Pressure Humidity
    00:00 +8°C° 0 mm 3 mps 741 mmHg 96%
    01:00 +7°C° 0 mm 3 mps 741 mmHg 96%
    02:00 +7°C° 0 mm 3 mps 741 mmHg 96%
    03:00 +5°C° 0 mm 3 mps 741 mmHg 96%
    04:00 +5°C° 0 mm 3 mps 741 mmHg 97%
    05:00 +5°C° 0 mm 3 mps 741 mmHg 97%
    06:00 +7°C° 0 mm 3 mps 741 mmHg 95%
    07:00 +6°C° 0 mm 4 mps 741 mmHg 92%
    08:00 +7°C° 0 mm 4 mps 741 mmHg 90%
    09:00 +7°C° 0 mm 4 mps 741 mmHg 88%
    10:00 +8°C° 0 mm 4 mps 742 mmHg 85%
    11:00 +9°C° 0 mm 3 mps 742 mmHg 83%
    12:00 +8°C° 0 mm 4 mps 742 mmHg 80%
    13:00 +10°C° 0 mm 4 mps 742 mmHg 78%
    14:00 +10°C° 0 mm 4 mps 742 mmHg 76%
    15:00 +9°C° 0 mm 3 mps 743 mmHg 79%
    16:00 +9°C° 0 mm 3 mps 743 mmHg 82%
    17:00 +8°C° 0 mm 3 mps 743 mmHg 85%
    18:00 +8°C° 0 mm 2 mps 743 mmHg 87%
    19:00 +7°C° 0 mm 2 mps 742 mmHg 89%
    20:00 +7°C° 0 mm 2 mps 742 mmHg 91%
    21:00 +7°C° 0.1 mm 2 mps 742 mmHg 91%
    22:00 +7°C° 0.1 mm 3 mps 742 mmHg 91%
    23:00 +7°C° 0.1 mm 3 mps 742 mmHg 91%

    25 September, Tuesday

    Time Temperature Precipitation Wind Pressure Humidity
    00:00 +7°C° 0.3 mm 3 mps 741 mmHg 91%
    01:00 +6°C° 0.3 mm 4 mps 741 mmHg 92%
    02:00 +7°C° 0.3 mm 4 mps 740 mmHg 92%
    03:00 +7°C° 0.7 mm 5 mps 739 mmHg 92%
    04:00 +7°C° 0.7 mm 5 mps 739 mmHg 91%
    05:00 +7°C° 0.7 mm 6 mps 738 mmHg 91%
    06:00 +7°C° 1.1 mm 6 mps 737 mmHg 90%
    07:00 +6°C° 1.1 mm 7 mps 737 mmHg 90%
    08:00 +6°C° 1.1 mm 7 mps 736 mmHg 90%
    09:00 +6°C° 1.4 mm 7 mps 735 mmHg 90%
    10:00 +6°C° 1.4 mm 7 mps 735 mmHg 90%
    11:00 +8°C° 1.4 mm 6 mps 734 mmHg 91%
    12:00 +8°C° 1.2 mm 6 mps 734 mmHg 91%
    13:00 +8°C° 1.2 mm 6 mps 734 mmHg 91%
    14:00 +8°C° 1.2 mm 5 mps 733 mmHg 91%
    15:00 +8°C° 0.5 mm 5 mps 733 mmHg 91%
    16:00 +8°C° 0.5 mm 5 mps 733 mmHg 91%
    17:00 +8°C° 0.5 mm 4 mps 733 mmHg 91%
    18:00 +8°C° 0.2 mm 4 mps 733 mmHg 92%
    19:00 +8°C° 0.2 mm 3 mps 733 mmHg 94%
    20:00 +8°C° 0.2 mm 3 mps 732 mmHg 95%
    21:00 +8°C° 0.5 mm 3 mps 732 mmHg 95%
    22:00 +8°C° 0.5 mm 2 mps 732 mmHg 96%
    23:00 +8°C° 0.5 mm 2 mps 732 mmHg 97%

    26 September, Wednesday

    Time Temperature Precipitation Wind Pressure Humidity
    00:00 +8°C° 0.5 mm 2 mps 733 mmHg 97%
    01:00 +8°C° 0.5 mm 2 mps 733 mmHg 97%
    02:00 +7°C° 0.5 mm 2 mps 733 mmHg 97%
    03:00 +7°C° 0.5 mm 2 mps 733 mmHg 97%
    04:00 +7°C° 0.5 mm 2 mps 733 mmHg 97%
    05:00 +8°C° 0.5 mm 1 mps 733 mmHg 97%
    06:00 +9°C° 0.2 mm 1 mps 733 mmHg 96%
    07:00 +9°C° 0.2 mm 1 mps 734 mmHg 94%
    08:00 +9°C° 0.2 mm 1 mps 734 mmHg 93%
    09:00 +9°C° 0.3 mm 2 mps 735 mmHg 91%
    10:00 +9°C° 0.3 mm 2 mps 736 mmHg 89%
    11:00 +10°C° 0.3 mm 2 mps 736 mmHg 87%
    12:00 +10°C° 0.4 mm 3 mps 737 mmHg 87%
    13:00 +8°C° 0.4 mm 4 mps 738 mmHg 87%
    14:00 +8°C° 0.4 mm 4 mps 739 mmHg 87%
    15:00 +8°C° 0.2 mm 5 mps 739 mmHg 87%
    16:00 +7°C° 0.2 mm 5 mps 740 mmHg 87%
    17:00 +7°C° 0.2 mm 5 mps 741 mmHg 87%
    18:00 +7°C° 0.1 mm 5 mps 742 mmHg 87%
    19:00 +6°C° 0.1 mm 5 mps 743 mmHg 88%
    20:00 +6°C° 0.1 mm 5 mps 744 mmHg 88%
    21:00 +6°C° 0.1 mm 5 mps 744 mmHg 88%
    22:00 +5°C° 0.1 mm 6 mps 745 mmHg 87%
    23:00 +4°C° 0.1 mm 6 mps 746 mmHg 87%
    Show more